Location: Bonny Doon Airfield
(37.0704°N, 122.1252°W)
Time: 23:34:13
(UTC-07:00)

Vanguard 2 - Pass Details

Date: 18 December 2017
Orbit: 553 x 2939 km, 32.9° (Epoch: 19 July)

Event Time Altitude Azimuth Distance (km) Brightness Sun altitude
Rises 09:58:57 0° 194° (SSW) 6,655 13.0 22.6°
Reaches altitude 10° 10:06:36 10° 175° (S) 5,326 13.1 23.4°
Maximum altitude 10:13:44 15° 147° (SSE) 4,469 13.8 24.1°
Drops below altitude 10° 10:19:44 10° 118° (ESE) 4,388 12.4 24.6°
Sets 10:24:48 0° 97° (E) 4,899 12.1 25.1°
